Hourly Weather Bashovo

Today, 19 June, Saturday

Time Temperature Precipitation Wind Pressure Humidity
00:00 +17°C° 0 mm 2 mps 756 mmHg 88%
01:00 +17°C° 0 mm 2 mps 756 mmHg 90%
02:00 +16°C° 0 mm 2 mps 756 mmHg 92%
03:00 +17°C° 0 mm 2 mps 756 mmHg 91%
04:00 +17°C° 0 mm 2 mps 756 mmHg 90%
05:00 +17°C° 0 mm 2 mps 756 mmHg 89%
06:00 +19°C° 0 mm 2 mps 756 mmHg 80%
07:00 +21°C° 0 mm 2 mps 756 mmHg 72%
08:00 +24°C° 0 mm 2 mps 757 mmHg 63%
09:00 +26°C° 0 mm 2 mps 756 mmHg 58%
10:00 +27°C° 0 mm 2 mps 756 mmHg 52%
11:00 +28°C° 0 mm 2 mps 756 mmHg 47%
12:00 +29°C° 0 mm 2 mps 756 mmHg 45%
13:00 +30°C° 0 mm 3 mps 755 mmHg 43%
14:00 +30°C° 0 mm 3 mps 755 mmHg 41%
15:00 +30°C° 0 mm 3 mps 755 mmHg 44%
16:00 +30°C° 0 mm 3 mps 754 mmHg 46%
17:00 +30°C° 0 mm 3 mps 754 mmHg 49%
18:00 +27°C° 0 mm 2 mps 754 mmHg 58%
19:00 +25°C° 0 mm 2 mps 754 mmHg 67%
20:00 +23°C° 0 mm 2 mps 754 mmHg 77%
21:00 +21°C° 0 mm 2 mps 754 mmHg 80%
22:00 +20°C° 0 mm 2 mps 754 mmHg 83%
23:00 +18°C° 0 mm 2 mps 755 mmHg 86%

Tomorrow, 20 June, Sunday

Time Temperature Precipitation Wind Pressure Humidity
00:00 +18°C° 0 mm 2 mps 755 mmHg 89%
01:00 +17°C° 0 mm 2 mps 755 mmHg 92%
02:00 +17°C° 0 mm 2 mps 755 mmHg 95%
03:00 +17°C° 0 mm 2 mps 755 mmHg 94%
04:00 +18°C° 0 mm 2 mps 755 mmHg 93%
05:00 +18°C° 0 mm 2 mps 755 mmHg 92%
06:00 +20°C° 0 mm 2 mps 755 mmHg 84%
07:00 +24°C° 0 mm 2 mps 754 mmHg 76%
08:00 +26°C° 0 mm 2 mps 754 mmHg 68%
09:00 +27°C° 0 mm 2 mps 754 mmHg 62%
10:00 +28°C° 0 mm 2 mps 754 mmHg 56%
11:00 +30°C° 0 mm 2 mps 754 mmHg 50%
12:00 +30°C° 0 mm 2 mps 754 mmHg 50%
13:00 +30°C° 0 mm 2 mps 753 mmHg 49%
14:00 +31°C° 0 mm 2 mps 753 mmHg 49%
15:00 +30°C° 0 mm 2 mps 753 mmHg 54%
16:00 +29°C° 0 mm 2 mps 753 mmHg 59%
17:00 +28°C° 0 mm 1 mps 752 mmHg 65%
18:00 +27°C° 0 mm 2 mps 752 mmHg 68%
19:00 +26°C° 0 mm 2 mps 752 mmHg 71%
20:00 +25°C° 0 mm 2 mps 752 mmHg 74%
21:00 +24°C° 0 mm 2 mps 752 mmHg 78%
22:00 +23°C° 0 mm 2 mps 753 mmHg 83%
23:00 +21°C° 0 mm 2 mps 753 mmHg 88%

Day after tomorrow, 21 June, Monday

Time Temperature Precipitation Wind Pressure Humidity
00:00 +20°C° 0 mm 2 mps 753 mmHg 90%
01:00 +21°C° 0 mm 1 mps 753 mmHg 93%
02:00 +20°C° 0 mm 1 mps 753 mmHg 95%
03:00 +21°C° 0 mm 1 mps 753 mmHg 94%
04:00 +21°C° 0 mm 1 mps 753 mmHg 92%
05:00 +21°C° 0 mm 1 mps 753 mmHg 91%
06:00 +23°C° 0 mm 2 mps 753 mmHg 82%
07:00 +24°C° 0 mm 2 mps 753 mmHg 73%
08:00 +26°C° 0 mm 2 mps 753 mmHg 64%
09:00 +27°C° 0 mm 2 mps 753 mmHg 59%
10:00 +28°C° 0 mm 3 mps 753 mmHg 55%
11:00 +30°C° 0 mm 3 mps 753 mmHg 50%
12:00 +30°C° 0 mm 3 mps 752 mmHg 48%
13:00 +31°C° 0 mm 3 mps 752 mmHg 45%
14:00 +31°C° 0 mm 3 mps 752 mmHg 42%
15:00 +31°C° 0 mm 3 mps 752 mmHg 44%
16:00 +31°C° 0 mm 3 mps 752 mmHg 45%
17:00 +31°C° 0 mm 2 mps 751 mmHg 47%
18:00 +29°C° 0 mm 2 mps 751 mmHg 55%
19:00 +27°C° 0 mm 2 mps 751 mmHg 63%
20:00 +25°C° 0 mm 2 mps 751 mmHg 72%
21:00 +24°C° 0 mm 2 mps 751 mmHg 73%
22:00 +23°C° 0 mm 2 mps 751 mmHg 74%
23:00 +21°C° 0 mm 2 mps 751 mmHg 74%

22 June, Tuesday

Time Temperature Precipitation Wind Pressure Humidity
00:00 +20°C° 0 mm 2 mps 751 mmHg 80%
01:00 +20°C° 0 mm 2 mps 751 mmHg 86%
02:00 +19°C° 0 mm 2 mps 751 mmHg 91%
03:00 +19°C° 0 mm 2 mps 751 mmHg 91%
04:00 +20°C° 0 mm 2 mps 751 mmHg 91%
05:00 +20°C° 0 mm 2 mps 751 mmHg 91%
06:00 +22°C° 0 mm 3 mps 751 mmHg 84%
07:00 +25°C° 0 mm 3 mps 751 mmHg 76%
08:00 +27°C° 0 mm 4 mps 751 mmHg 68%
09:00 +28°C° 0 mm 4 mps 751 mmHg 61%
10:00 +30°C° 0 mm 4 mps 751 mmHg 54%
11:00 +32°C° 0 mm 5 mps 751 mmHg 47%
12:00 +33°C° 0 mm 5 mps 751 mmHg 44%
13:00 +33°C° 0 mm 5 mps 751 mmHg 42%
14:00 +34°C° 0 mm 5 mps 751 mmHg 39%
15:00 +34°C° 0 mm 4 mps 751 mmHg 43%
16:00 +33°C° 0 mm 4 mps 751 mmHg 47%
17:00 +32°C° 0 mm 4 mps 751 mmHg 51%
18:00 +30°C° 0 mm 3 mps 751 mmHg 59%
19:00 +28°C° 0 mm 2 mps 751 mmHg 67%
20:00 +26°C° 0 mm 2 mps 751 mmHg 76%
21:00 +25°C° 0 mm 2 mps 751 mmHg 80%
22:00 +24°C° 0 mm 2 mps 752 mmHg 83%
23:00 +23°C° 0 mm 2 mps 752 mmHg 87%

23 June, Wednesday

Time Temperature Precipitation Wind Pressure Humidity
00:00 +21°C° 0 mm 2 mps 752 mmHg 89%
01:00 +21°C° 0 mm 2 mps 752 mmHg 92%
02:00 +20°C° 0 mm 2 mps 753 mmHg 94%
03:00 +21°C° 0 mm 2 mps 753 mmHg 93%
04:00 +21°C° 0 mm 2 mps 753 mmHg 92%
05:00 +21°C° 0 mm 2 mps 753 mmHg 91%
06:00 +24°C° 0 mm 2 mps 753 mmHg 82%
07:00 +26°C° 0 mm 2 mps 753 mmHg 73%
08:00 +28°C° 0 mm 3 mps 753 mmHg 64%
09:00 +30°C° 0 mm 3 mps 753 mmHg 58%
10:00 +32°C° 0 mm 4 mps 753 mmHg 52%
11:00 +34°C° 0 mm 4 mps 753 mmHg 45%
12:00 +34°C° 0 mm 4 mps 753 mmHg 42%
13:00 +35°C° 0 mm 4 mps 753 mmHg 38%
14:00 +35°C° 0 mm 4 mps 753 mmHg 35%
15:00 +35°C° 0 mm 3 mps 753 mmHg 38%
16:00 +35°C° 0 mm 3 mps 753 mmHg 40%
17:00 +34°C° 0 mm 3 mps 753 mmHg 43%
18:00 +31°C° 0 mm 2 mps 753 mmHg 53%
19:00 +29°C° 0 mm 2 mps 753 mmHg 62%
20:00 +27°C° 0 mm 2 mps 753 mmHg 72%
21:00 +26°C° 0 mm 2 mps 753 mmHg 74%
22:00 +25°C° 0 mm 2 mps 753 mmHg 76%
23:00 +24°C° 0 mm 2 mps 753 mmHg 79%

24 June, Thursday

Time Temperature Precipitation Wind Pressure Humidity
00:00 +24°C° 0 mm 2 mps 753 mmHg 81%
01:00 +23°C° 0 mm 2 mps 753 mmHg 83%
02:00 +23°C° 0 mm 2 mps 753 mmHg 85%
03:00 +23°C° 0 mm 2 mps 753 mmHg 86%
04:00 +23°C° 0 mm 2 mps 754 mmHg 86%
05:00 +23°C° 0 mm 1 mps 754 mmHg 87%
06:00 +25°C° 0 mm 2 mps 754 mmHg 78%
07:00 +27°C° 0 mm 2 mps 754 mmHg 70%
08:00 +29°C° 0 mm 3 mps 754 mmHg 61%
09:00 +30°C° 0 mm 3 mps 754 mmHg 55%
10:00 +33°C° 0 mm 3 mps 754 mmHg 48%
11:00 +34°C° 0 mm 3 mps 754 mmHg 41%
12:00 +35°C° 0 mm 4 mps 753 mmHg 39%
13:00 +35°C° 0 mm 4 mps 753 mmHg 37%
14:00 +36°C° 0 mm 4 mps 753 mmHg 35%
15:00 +35°C° 0 mm 4 mps 753 mmHg 38%
16:00 +35°C° 0 mm 3 mps 753 mmHg 41%
17:00 +34°C° 0 mm 3 mps 753 mmHg 44%
18:00 +31°C° 0 mm 3 mps 752 mmHg 54%
19:00 +29°C° 0 mm 2 mps 752 mmHg 64%
20:00 +26°C° 0 mm 2 mps 752 mmHg 75%
21:00 +26°C° 0 mm 2 mps 752 mmHg 78%
22:00 +25°C° 0 mm 2 mps 752 mmHg 82%
23:00 +24°C° 0 mm 2 mps 753 mmHg 85%
Show more